Regional Weather Roundup
Issued by NWS

Home | Current Version | Previous Version | Graphics & Text | Print | Product List | Glossary On
Versions: 1 2 3 4 5 6 7 8 9 10 11 12 13 14 15 16 17 18 19 20 21 22 23 24 25 26 27 28 29 30 31 32 33 34 35 36 37 38 39 40 41 42 43 44 45 46 47 48 49 50
000
ASUS43 KLOT 291600
RWRIL

ILLINOIS REGIONAL WEATHER ROUNDUP
NATIONAL WEATHER SERVICE CHICAGO/ROMEOVILLE IL
1100 AM CDT FRI MAY 29 2015

NOTE: "FAIR" INDICATES FEW OR NO CLOUDS BELOW 12,000 FEET WITH NO
SIGNIFICANT WEATHER AND/OR OBSTRUCTIONS TO VISIBILITY.

* THESE STATIONS ARE NOT UNDER NWS QUALITY CONTROL. THEY ALSO MAY NOT
  REPORT WEATHER SUCH AS PRECIPITATION OR FOG.

ILZ001-002-007-009-015-016-024-291700-
NORTHWEST ILLINOIS

CITY           SKY/WX    TMP DP  RH WIND       PRES   REMARKS
MOLINE         CLOUDY    71  67  87 S7        29.97S FOG
STERLING*      CLOUDY    73  64  73 S6        29.99F
$$

ILZ003-004-008-010-011-017-018-291700-
NORTH CENTRAL ILLINOIS

CITY           SKY/WX    TMP DP  RH WIND       PRES   REMARKS
ROCKFORD       CLOUDY    76  68  76 S12       30.01F
FREEPORT*      CLOUDY    73  65  76 S13       30.00F
$$

ILZ005-006-012>014-019>023-291700-
NORTHEAST ILLINOIS

CITY           SKY/WX    TMP DP  RH WIND       PRES   REMARKS
CHICAGO-OHARE  PTSUNNY   79  65  62 S15G22    30.01F HX  81
CHICAGO-MIDWAY PTSUNNY   82  65  56 S15       30.02F HX  84
AURORA         CLOUDY    76  64  66 S16G23    30.03S
WAUKEGAN       PTSUNNY   75  64  68 SE7       30.01F
DUPAGE AIRPORT LGT RAIN  75  66  73 S12       30.02S
WHEELING       PTSUNNY   79  64  60 S13       30.02F HX  81
NORTHERLY ISL    N/A     78  62  57 S14         N/A  HX  80
$$

LMZ740>746-291700-
SOUTHERN LAKE MICHIGAN

STATION/POSITION SKY/WX   TEMP    WIND        PRES    VSBY  WAVE
                          AIR SEA DIR/SP/G                  HT/PER
                          (F)     (DEG/KT/KT) (MB)    (MI)  (FT/S)
SOUTHERN BUOY              47 38  170/ 12/ 12 1018.1          1
HARRISON CRIB              70     160/ 12/ 14   N/A
BURNHAM HARBOR             78     210/  5/ 13   N/A
CALUMET HARBOR             77     190/  9/ 15   N/A
BURNS HARBOR               77     180/  9/ 15 1017.9F
MICHIGAN CITY              76     180/ 10/ 13   N/A
MICHIGAN CITY 6N           66 56  210/  4/  4   N/A           0
ST. JOSEPH                 63 57  210/  4/  6   N/A           1
$$

ILZ025>027-034>036-040-047-049-050-058-095>099-291700-
WEST-CENTRAL ILLINOIS

CITY           SKY/WX    TMP DP  RH WIND       PRES   REMARKS
QUINCY         PTSUNNY   75  67  76 SW10      30.01R
$$

ILZ028>032-037-038-041>044-048-051>054-059>061-291700-
CENTRAL ILLINOIS

CITY           SKY/WX    TMP DP  RH WIND       PRES   REMARKS
DECATUR        PTSUNNY   78  67  68 S15       30.06F HX  80
PEORIA         CLOUDY    77  66  68 S16       30.01S
SPRINGFIELD    PTSUNNY   79  68  69 S13G18    30.03F HX  81
TAYLORVILLE    NOT AVBL
$$

ILZ033-039-045-046-055>057-062-063-291700-
EAST-CENTRAL ILLINOIS

CITY           SKY/WX    TMP DP  RH WIND       PRES   REMARKS
CHAMPAIGN      LGT RAIN  77  66  68 S16       30.08R
$$

ILZ079-100>102-291700-
SOUTHWEST ILLINOIS

CITY           SKY/WX    TMP DP  RH WIND       PRES   REMARKS
ALTON          MOSUNNY   79  72  78 S12       30.05S HX  82
BELLEVILLE     MOSUNNY   77  71  82 S12       30.05S
CAHOKIA*       CLOUDY    81  68  64 VRB5      30.04S HX  84
SPARTA*        PTSUNNY   77  69  76 S10       30.08F
$$

ILZ064>066-069>071-074>076-080>082-084>086-088>090-092>094-291700-
SOUTH-CENTRAL ILLINOIS

CITY           SKY/WX    TMP DP  RH WIND       PRES   REMARKS
CARBONDALE     MOSUNNY   80  68  66 S12       30.08F HX  83
MARION         PTSUNNY   79  70  73 MISG      30.10S HX  81
MT. VERNON     MOSUNNY   81  68  65 S12       30.10F HX  83
$$

ILZ067-068-072-073-078-083-087-091-291700-
SOUTHEAST ILLINOIS

CITY           SKY/WX    TMP DP  RH WIND       PRES   REMARKS
LAWRENCEVILLE  MOSUNNY   80  67  64 S14       30.12S HX  82
ROBINSON*      MOSUNNY   80  65  59 SW9       30.12S HX  82
$$

ABBREVIATIONS USED IN REMARKS
   TC - TEMPERATURE IN CELSIUS
  WCI - WIND CHILL INDEX
   HX - HEAT INDEX
  VSB - VISIBILITY
$$




USA.gov is the U.S. government's official web portal to all federal, state and local government web resources and services.